When you browse on this site, cookies collect data to enhance your experience and personalize the content and advertising you see.
Visit our Privacy Policy to learn more. By continuing to use the site, you agree to this use of cookies and data.
  • în România
  • Lista ţărilor
  • Pe 7 zile
  • Temperatura apei
  • Hartă satelitară
  • Meteo pe hartă
  • Widget-uri
  • user-avatar
    Intrare

    Meteo pe oră la As-Salt

    Astăzi, 24 Martie, Duminică

    Timp Temperatura Precipitaţii Vânt Presiune Umiditate
    00:00 +14°C° 0 mm 0 m/s 706 mmHg 70%
    01:00 +14°C° 0 mm 0 m/s 705 mmHg 70%
    02:00 +15°C° 0 mm 1 m/s 705 mmHg 64%
    03:00 +15°C° 0 mm 1 m/s 705 mmHg 65%
    04:00 +14°C° 0 mm 2 m/s 704 mmHg 67%
    05:00 +14°C° 0 mm 2 m/s 704 mmHg 68%
    06:00 +15°C° 0 mm 2 m/s 704 mmHg 65%
    07:00 +15°C° 0 mm 2 m/s 704 mmHg 62%
    08:00 +16°C° 0 mm 2 m/s 704 mmHg 59%
    09:00 +16°C° 0.1 mm 3 m/s 704 mmHg 55%
    10:00 +16°C° 0.1 mm 3 m/s 704 mmHg 52%
    11:00 +16°C° 0.1 mm 3 m/s 703 mmHg 48%
    12:00 +15°C° 0.1 mm 4 m/s 703 mmHg 47%
    13:00 +15°C° 0.1 mm 5 m/s 703 mmHg 46%
    14:00 +15°C° 0.1 mm 5 m/s 703 mmHg 45%
    15:00 +14°C° 0 mm 5 m/s 703 mmHg 47%
    16:00 +14°C° 0 mm 5 m/s 703 mmHg 49%
    17:00 +14°C° 0 mm 5 m/s 703 mmHg 52%
    18:00 +13°C° 0 mm 5 m/s 703 mmHg 56%
    19:00 +12°C° 0 mm 4 m/s 703 mmHg 60%
    20:00 +11°C° 0 mm 3 m/s 703 mmHg 64%
    21:00 +11°C° 0 mm 3 m/s 703 mmHg 66%
    22:00 +10°C° 0 mm 2 m/s 703 mmHg 68%
    23:00 +10°C° 0 mm 2 m/s 703 mmHg 69%

    Mâine, 25 Martie, Luni

    Timp Temperatura Precipitaţii Vânt Presiune Umiditate
    00:00 +10°C° 0.2 mm 2 m/s 703 mmHg 72%
    01:00 +9°C° 0.2 mm 3 m/s 703 mmHg 74%
    02:00 +9°C° 0.2 mm 3 m/s 703 mmHg 77%
    03:00 +8°C° 1.2 mm 2 m/s 703 mmHg 80%
    04:00 +8°C° 1.2 mm 2 m/s 703 mmHg 83%
    05:00 +7°C° 1.2 mm 2 m/s 702 mmHg 86%
    06:00 +8°C° 0.2 mm 2 m/s 703 mmHg 84%
    07:00 +8°C° 0.2 mm 2 m/s 703 mmHg 82%
    08:00 +8°C° 0.2 mm 3 m/s 704 mmHg 80%
    09:00 +9°C° 0.1 mm 3 m/s 704 mmHg 74%
    10:00 +10°C° 0.1 mm 3 m/s 704 mmHg 68%
    11:00 +11°C° 0.1 mm 4 m/s 705 mmHg 62%
    12:00 +12°C° 0.1 mm 5 m/s 705 mmHg 58%
    13:00 +11°C° 0.1 mm 6 m/s 705 mmHg 54%
    14:00 +12°C° 0.1 mm 7 m/s 705 mmHg 51%
    15:00 +11°C° 0 mm 6 m/s 705 mmHg 52%
    16:00 +11°C° 0 mm 6 m/s 706 mmHg 53%
    17:00 +10°C° 0 mm 6 m/s 706 mmHg 54%
    18:00 +10°C° 0 mm 5 m/s 707 mmHg 59%
    19:00 +10°C° 0 mm 4 m/s 707 mmHg 64%
    20:00 +9°C° 0 mm 3 m/s 707 mmHg 69%
    21:00 +9°C° 0 mm 3 m/s 708 mmHg 70%
    22:00 +9°C° 0 mm 3 m/s 708 mmHg 72%
    23:00 +8°C° 0 mm 3 m/s 708 mmHg 74%

    Poimâine, 26 Martie, Marţi

    Timp Temperatura Precipitaţii Vânt Presiune Umiditate
    00:00 +8°C° 0 mm 2 m/s 709 mmHg 75%
    01:00 +8°C° 0 mm 2 m/s 709 mmHg 75%
    02:00 +7°C° 0 mm 2 m/s 709 mmHg 76%
    03:00 +7°C° 0 mm 2 m/s 709 mmHg 76%
    04:00 +7°C° 0 mm 2 m/s 709 mmHg 76%
    05:00 +7°C° 0 mm 2 m/s 710 mmHg 76%
    06:00 +8°C° 0 mm 2 m/s 710 mmHg 71%
    07:00 +9°C° 0 mm 2 m/s 711 mmHg 65%
    08:00 +10°C° 0 mm 2 m/s 712 mmHg 59%
    09:00 +11°C° 0 mm 3 m/s 712 mmHg 55%
    10:00 +12°C° 0 mm 3 m/s 712 mmHg 51%
    11:00 +13°C° 0 mm 3 m/s 712 mmHg 47%
    12:00 +14°C° 0 mm 3 m/s 712 mmHg 46%
    13:00 +14°C° 0 mm 4 m/s 711 mmHg 44%
    14:00 +15°C° 0 mm 4 m/s 711 mmHg 43%
    15:00 +14°C° 0 mm 4 m/s 711 mmHg 46%
    16:00 +14°C° 0 mm 4 m/s 711 mmHg 48%
    17:00 +13°C° 0 mm 3 m/s 711 mmHg 51%
    18:00 +13°C° 0 mm 3 m/s 712 mmHg 56%
    19:00 +13°C° 0 mm 2 m/s 712 mmHg 61%
    20:00 +12°C° 0 mm 1 m/s 713 mmHg 66%
    21:00 +12°C° 0 mm 1 m/s 713 mmHg 67%
    22:00 +11°C° 0 mm 1 m/s 713 mmHg 68%
    23:00 +11°C° 0 mm 1 m/s 713 mmHg 70%

    27 Martie, Miercuri

    Timp Temperatura Precipitaţii Vânt Presiune Umiditate
    00:00 +11°C° 0 mm 1 m/s 713 mmHg 69%
    01:00 +10°C° 0 mm 1 m/s 713 mmHg 69%
    02:00 +10°C° 0 mm 1 m/s 713 mmHg 69%
    03:00 +10°C° 0 mm 1 m/s 713 mmHg 70%
    04:00 +10°C° 0 mm 1 m/s 713 mmHg 71%
    05:00 +10°C° 0 mm 1 m/s 713 mmHg 72%
    06:00 +10°C° 0 mm 2 m/s 713 mmHg 67%
    07:00 +12°C° 0 mm 2 m/s 714 mmHg 62%
    08:00 +12°C° 0 mm 3 m/s 714 mmHg 57%
    09:00 +13°C° 0 mm 3 m/s 715 mmHg 53%
    10:00 +14°C° 0 mm 4 m/s 715 mmHg 49%
    11:00 +15°C° 0 mm 4 m/s 715 mmHg 45%
    12:00 +15°C° 0 mm 5 m/s 715 mmHg 45%
    13:00 +16°C° 0 mm 5 m/s 715 mmHg 45%
    14:00 +16°C° 0 mm 5 m/s 715 mmHg 44%
    15:00 +15°C° 0 mm 5 m/s 715 mmHg 49%
    16:00 +15°C° 0 mm 5 m/s 715 mmHg 53%
    17:00 +14°C° 0 mm 4 m/s 715 mmHg 58%
    18:00 +13°C° 0 mm 3 m/s 715 mmHg 62%
    19:00 +13°C° 0 mm 2 m/s 715 mmHg 67%
    20:00 +13°C° 0 mm 2 m/s 715 mmHg 72%
    21:00 +12°C° 0 mm 1 m/s 715 mmHg 74%
    22:00 +12°C° 0 mm 1 m/s 716 mmHg 76%
    23:00 +12°C° 0 mm 1 m/s 716 mmHg 79%

    28 Martie, Joi

    Timp Temperatura Precipitaţii Vânt Presiune Umiditate
    00:00 +11°C° 0 mm 1 m/s 715 mmHg 79%
    01:00 +11°C° 0 mm 1 m/s 715 mmHg 80%
    02:00 +11°C° 0 mm 1 m/s 715 mmHg 80%
    03:00 +10°C° 0 mm 1 m/s 715 mmHg 82%
    04:00 +10°C° 0 mm 1 m/s 715 mmHg 83%
    05:00 +9°C° 0 mm 0 m/s 715 mmHg 85%
    06:00 +11°C° 0 mm 1 m/s 716 mmHg 78%
    07:00 +12°C° 0 mm 1 m/s 716 mmHg 72%
    08:00 +14°C° 0 mm 1 m/s 717 mmHg 65%
    09:00 +15°C° 0 mm 1 m/s 717 mmHg 58%
    10:00 +16°C° 0 mm 2 m/s 717 mmHg 51%
    11:00 +17°C° 0 mm 2 m/s 717 mmHg 44%
    12:00 +18°C° 0 mm 2 m/s 716 mmHg 42%
    13:00 +18°C° 0 mm 3 m/s 716 mmHg 40%
    14:00 +19°C° 0 mm 3 m/s 715 mmHg 38%
    15:00 +18°C° 0 mm 3 m/s 715 mmHg 43%
    16:00 +18°C° 0 mm 3 m/s 715 mmHg 47%
    17:00 +17°C° 0 mm 3 m/s 715 mmHg 51%
    18:00 +16°C° 0 mm 3 m/s 715 mmHg 58%
    19:00 +15°C° 0 mm 2 m/s 715 mmHg 66%
    20:00 +14°C° 0 mm 2 m/s 714 mmHg 73%
    21:00 +14°C° 0 mm 1 m/s 714 mmHg 76%
    22:00 +14°C° 0 mm 1 m/s 714 mmHg 79%
    23:00 +13°C° 0 mm 1 m/s 714 mmHg 81%

    29 Martie, Vineri

    Timp Temperatura Precipitaţii Vânt Presiune Umiditate
    00:00 +13°C° 0 mm 1 m/s 714 mmHg 81%
    01:00 +13°C° 0 mm 1 m/s 713 mmHg 82%
    02:00 +13°C° 0 mm 1 m/s 713 mmHg 82%
    03:00 +12°C° 0 mm 1 m/s 713 mmHg 81%
    04:00 +12°C° 0 mm 1 m/s 713 mmHg 81%
    05:00 +12°C° 0 mm 1 m/s 713 mmHg 80%
    06:00 +13°C° 0 mm 1 m/s 713 mmHg 73%
    07:00 +14°C° 0 mm 1 m/s 713 mmHg 66%
    08:00 +14°C° 0 mm 0 m/s 714 mmHg 59%
    09:00 +15°C° 0.1 mm 1 m/s 714 mmHg 55%
    10:00 +16°C° 0.1 mm 1 m/s 713 mmHg 52%
    11:00 +16°C° 0.1 mm 1 m/s 713 mmHg 48%
    12:00 +18°C° 0.1 mm 1 m/s 712 mmHg 48%
    13:00 +17°C° 0.1 mm 2 m/s 712 mmHg 49%
    14:00 +17°C° 0.1 mm 2 m/s 711 mmHg 49%
    15:00 +18°C° 0 mm 2 m/s 711 mmHg 48%
    16:00 +18°C° 0 mm 2 m/s 710 mmHg 47%
    17:00 +18°C° 0 mm 2 m/s 709 mmHg 46%
    18:00 +18°C° 0 mm 2 m/s 709 mmHg 49%
    19:00 +17°C° 0 mm 2 m/s 709 mmHg 52%
    20:00 +16°C° 0 mm 2 m/s 709 mmHg 55%
    21:00 +16°C° 0 mm 2 m/s 708 mmHg 56%
    22:00 +15°C° 0 mm 2 m/s 708 mmHg 57%
    23:00 +14°C° 0 mm 3 m/s 707 mmHg 58%
    Arată mai mult